Location: Newark
(37.8333°N, 119.5000°W)
Time: 18:23:47
(UTC+00:00)

Tiros 1 despin weight - Pass Details

Date: 21 August 2019
Orbit: 594 x 642 km, 48.2° (Epoch: 22 September)

Event Time Altitude Azimuth Distance (km) Brightness Sun altitude
Rises 08:04:30 0° 245° (WSW) 2,828 - -40.0°
Reaches altitude 10° 08:06:48 10° 249° (WSW) 1,933 - -40.0°
Maximum altitude 08:11:11 61° 330° (NNW) 687 - -39.9°
Drops below altitude 10° 08:15:39 10° 51° (NE) 1,966 - -39.9°
Exits shadow 08:17:23 - 55° (NE) 2,637 ? -39.9°
Sets 08:18:00 0° 55° (NE) 2,881 ? -39.9°
